When you browse on this site, cookies collect data to enhance your experience and personalize the content and advertising you see.
Visit our Privacy Policy to learn more. By continuing to use the site, you agree to this use of cookies and data.
EN

Hourly Weather Yerevan

Today, 10 July, Friday

Time Temperature Precipitation Wind Pressure Humidity
00:00 +25°C° 0.1 mm 2 mps 690 mmHg 60%
01:00 +24°C° 0.2 mm 2 mps 690 mmHg 62%
02:00 +23°C° 0.2 mm 2 mps 689 mmHg 63%
03:00 +23°C° 0 mm 2 mps 689 mmHg 66%
04:00 +23°C° 0.5 mm 2 mps 690 mmHg 66%
05:00 +23°C° 0.5 mm 2 mps 690 mmHg 65%
06:00 +24°C° 0.5 mm 2 mps 690 mmHg 64%
07:00 +24°C° 0.5 mm 2 mps 690 mmHg 62%
08:00 +25°C° 0.5 mm 2 mps 690 mmHg 60%
09:00 +26°C° 0 mm 2 mps 690 mmHg 56%
10:00 +28°C° 0.1 mm 2 mps 690 mmHg 51%
11:00 +29°C° 0.1 mm 2 mps 691 mmHg 46%
12:00 +31°C° 0.1 mm 2 mps 691 mmHg 41%
13:00 +32°C° 0.1 mm 2 mps 690 mmHg 38%
14:00 +32°C° 0.1 mm 2 mps 690 mmHg 35%
15:00 +34°C° 0.1 mm 2 mps 690 mmHg 32%
16:00 +34°C° 0.1 mm 2 mps 690 mmHg 33%
17:00 +34°C° 0.1 mm 2 mps 690 mmHg 34%
18:00 +34°C° 0.1 mm 2 mps 691 mmHg 35%
19:00 +30°C° 0.7 mm 2 mps 691 mmHg 44%
20:00 +28°C° 0.7 mm 2 mps 691 mmHg 52%
21:00 +25°C° 0.7 mm 2 mps 690 mmHg 61%
22:00 +25°C° 0.6 mm 2 mps 690 mmHg 65%
23:00 +24°C° 0.6 mm 2 mps 690 mmHg 68%

Tomorrow, 11 July, Saturday

Time Temperature Precipitation Wind Pressure Humidity
00:00 +23°C° 0.6 mm 1 mps 690 mmHg 72%
01:00 +23°C° 1.3 mm 1 mps 690 mmHg 75%
02:00 +22°C° 1.3 mm 1 mps 690 mmHg 77%
03:00 +22°C° 1.3 mm 1 mps 690 mmHg 80%
04:00 +22°C° 0.5 mm 1 mps 690 mmHg 79%
05:00 +22°C° 0.5 mm 1 mps 690 mmHg 78%
06:00 +23°C° 0.5 mm 1 mps 690 mmHg 76%
07:00 +24°C° 0.3 mm 1 mps 690 mmHg 70%
08:00 +25°C° 0.3 mm 1 mps 690 mmHg 65%
09:00 +27°C° 0.3 mm 1 mps 690 mmHg 59%
10:00 +28°C° 0.4 mm 1 mps 690 mmHg 53%
11:00 +30°C° 0.4 mm 1 mps 690 mmHg 46%
12:00 +31°C° 0.4 mm 1 mps 690 mmHg 40%
13:00 +32°C° 0.2 mm 2 mps 690 mmHg 38%
14:00 +34°C° 0.2 mm 2 mps 689 mmHg 36%
15:00 +34°C° 0.2 mm 3 mps 689 mmHg 34%
16:00 +34°C° 0.1 mm 3 mps 689 mmHg 35%
17:00 +33°C° 0.1 mm 3 mps 689 mmHg 36%
18:00 +33°C° 0.1 mm 3 mps 689 mmHg 37%
19:00 +30°C° 0.9 mm 3 mps 689 mmHg 47%
20:00 +27°C° 0.9 mm 3 mps 689 mmHg 57%
21:00 +25°C° 0.9 mm 3 mps 689 mmHg 67%
22:00 +24°C° 1 mm 3 mps 689 mmHg 70%
23:00 +24°C° 1 mm 2 mps 689 mmHg 72%

Day after tomorrow, 12 July, Sunday

Time Temperature Precipitation Wind Pressure Humidity
00:00 +23°C° 1 mm 2 mps 689 mmHg 75%
01:00 +23°C° 0.1 mm 2 mps 688 mmHg 76%
02:00 +23°C° 0.1 mm 2 mps 688 mmHg 77%
03:00 +23°C° 0.1 mm 1 mps 687 mmHg 78%
04:00 +23°C° 0 mm 1 mps 687 mmHg 77%
05:00 +23°C° 0 mm 1 mps 687 mmHg 76%
06:00 +23°C° 0 mm 1 mps 687 mmHg 75%
07:00 +24°C° 0.1 mm 1 mps 687 mmHg 69%
08:00 +26°C° 0.1 mm 1 mps 688 mmHg 63%
09:00 +27°C° 0.1 mm 1 mps 688 mmHg 57%
10:00 +28°C° 0.2 mm 1 mps 688 mmHg 52%
11:00 +30°C° 0.2 mm 2 mps 687 mmHg 47%
12:00 +31°C° 0.2 mm 2 mps 687 mmHg 42%
13:00 +32°C° 0.2 mm 2 mps 687 mmHg 39%
14:00 +34°C° 0.2 mm 2 mps 687 mmHg 35%
15:00 +34°C° 0.2 mm 2 mps 687 mmHg 32%
16:00 +34°C° 0.2 mm 3 mps 687 mmHg 34%
17:00 +34°C° 0.2 mm 3 mps 687 mmHg 35%
18:00 +33°C° 0.2 mm 3 mps 687 mmHg 37%
19:00 +30°C° 0.2 mm 3 mps 687 mmHg 42%
20:00 +28°C° 0.2 mm 3 mps 687 mmHg 48%
21:00 +26°C° 0.2 mm 3 mps 687 mmHg 54%
22:00 +25°C° 0.9 mm 2 mps 686 mmHg 60%
23:00 +25°C° 0.9 mm 2 mps 686 mmHg 65%

13 July, Monday

Time Temperature Precipitation Wind Pressure Humidity
00:00 +24°C° 0.9 mm 2 mps 686 mmHg 71%
01:00 +23°C° 0.5 mm 1 mps 685 mmHg 73%
02:00 +23°C° 0.5 mm 1 mps 685 mmHg 76%
03:00 +22°C° 0.5 mm 1 mps 685 mmHg 78%
04:00 +22°C° 0.4 mm 1 mps 685 mmHg 76%
05:00 +23°C° 0.4 mm 1 mps 685 mmHg 75%
06:00 +23°C° 0.4 mm 1 mps 685 mmHg 74%
07:00 +24°C° 0.2 mm 1 mps 685 mmHg 68%
08:00 +26°C° 0.2 mm 1 mps 685 mmHg 61%
09:00 +27°C° 0.2 mm 1 mps 685 mmHg 55%
10:00 +29°C° 0.2 mm 1 mps 685 mmHg 51%
11:00 +30°C° 0.2 mm 1 mps 685 mmHg 46%
12:00 +31°C° 0.2 mm 1 mps 684 mmHg 41%
13:00 +32°C° 0.3 mm 1 mps 684 mmHg 39%
14:00 +32°C° 0.3 mm 2 mps 684 mmHg 37%
15:00 +32°C° 0.3 mm 2 mps 684 mmHg 35%
16:00 +30°C° 0.4 mm 3 mps 684 mmHg 42%
17:00 +28°C° 0.4 mm 5 mps 684 mmHg 48%
18:00 +26°C° 0.4 mm 6 mps 684 mmHg 55%
19:00 +25°C° 0.8 mm 5 mps 685 mmHg 62%
20:00 +23°C° 0.8 mm 4 mps 685 mmHg 70%
21:00 +22°C° 0.8 mm 3 mps 686 mmHg 78%
22:00 +21°C° 0 mm 2 mps 685 mmHg 79%
23:00 +21°C° 0 mm 2 mps 685 mmHg 80%

14 July, Tuesday

Time Temperature Precipitation Wind Pressure Humidity
00:00 +22°C° 0 mm 1 mps 685 mmHg 81%
01:00 +21°C° 0 mm 1 mps 685 mmHg 82%
02:00 +21°C° 0 mm 1 mps 685 mmHg 83%
03:00 +21°C° 0 mm 1 mps 685 mmHg 84%
04:00 +21°C° 0 mm 1 mps 686 mmHg 81%
05:00 +22°C° 0 mm 1 mps 686 mmHg 79%
06:00 +22°C° 0 mm 1 mps 686 mmHg 76%
07:00 +24°C° 0 mm 1 mps 686 mmHg 69%
08:00 +25°C° 0 mm 1 mps 687 mmHg 61%
09:00 +27°C° 0 mm 1 mps 687 mmHg 54%
10:00 +28°C° 0.1 mm 1 mps 687 mmHg 48%
11:00 +30°C° 0.1 mm 1 mps 687 mmHg 43%
12:00 +31°C° 0.1 mm 1 mps 687 mmHg 37%
13:00 +32°C° 0 mm 1 mps 687 mmHg 35%
14:00 +33°C° 0 mm 1 mps 687 mmHg 32%
15:00 +34°C° 0 mm 1 mps 687 mmHg 29%
16:00 +34°C° 0 mm 1 mps 688 mmHg 30%
17:00 +34°C° 0 mm 2 mps 688 mmHg 31%
18:00 +34°C° 0 mm 2 mps 688 mmHg 32%
19:00 +31°C° 0.1 mm 2 mps 688 mmHg 37%
20:00 +29°C° 0.1 mm 2 mps 688 mmHg 42%
21:00 +27°C° 0.1 mm 2 mps 689 mmHg 46%
22:00 +26°C° 0.1 mm 2 mps 689 mmHg 49%
23:00 +26°C° 0.1 mm 2 mps 689 mmHg 52%

15 July, Wednesday

Time Temperature Precipitation Wind Pressure Humidity
00:00 +25°C° 0.1 mm 2 mps 689 mmHg 54%
01:00 +24°C° 0.2 mm 2 mps 689 mmHg 58%
02:00 +23°C° 0.2 mm 2 mps 689 mmHg 61%
03:00 +23°C° 0.2 mm 2 mps 689 mmHg 64%
04:00 +23°C° 0 mm 2 mps 689 mmHg 63%
05:00 +23°C° 0 mm 2 mps 689 mmHg 62%
06:00 +24°C° 0 mm 2 mps 689 mmHg 61%
07:00 +25°C° 0 mm 2 mps 689 mmHg 56%
08:00 +27°C° 0 mm 2 mps 689 mmHg 50%
09:00 +29°C° 0 mm 2 mps 689 mmHg 44%
10:00 +30°C° 0 mm 1 mps 689 mmHg 40%
11:00 +32°C° 0 mm 1 mps 689 mmHg 37%
12:00 +33°C° 0 mm 1 mps 689 mmHg 33%
13:00 +34°C° 0 mm 1 mps 689 mmHg 32%
14:00 +35°C° 0 mm 1 mps 689 mmHg 30%
15:00 +36°C° 0 mm 1 mps 689 mmHg 28%
16:00 +35°C° 0.2 mm 2 mps 689 mmHg 31%
17:00 +34°C° 0.2 mm 4 mps 688 mmHg 35%
18:00 +33°C° 0.2 mm 5 mps 688 mmHg 39%
19:00 +30°C° 1.2 mm 5 mps 688 mmHg 48%
20:00 +27°C° 1.2 mm 5 mps 689 mmHg 57%
21:00 +25°C° 1.2 mm 5 mps 689 mmHg 66%
22:00 +23°C° 0.7 mm 4 mps 689 mmHg 67%
23:00 +24°C° 0.7 mm 3 mps 689 mmHg 68%
Show more